SCP
0 0 0 0 0 0 0 0 0 0 0 0 0 0 0 0 0 0 0 0 0 0 0 0 0 0 0 0 0 0 0 0 0 0 0 0 0 0 0 0 0 0 0
0 0 0 0 0 0 0 0 0 0 0 0 0 0 0 0 0 0 0 0 0 0 0 0 0 0 0 0 0 0 0 0 0 0 0 0 0 0 0 0 0 0 0
0 0 0 0 0 0 0 0 0 0 0 0 0 0 0 0 0 0 0 0 0 0 0 0 0 0 0 0 0 0 0 0 0 0 0 0 0 0 0 0 0 0 0
0 0 0 0 0 0 0 0 0 0 0 0 0 0 0 0 0 0 0 0 0 0 0 0 0 0 0 0 0 0 0 0 0 0 0 0 0 0 0 0 0 0 0
0 0 0 0 0 0 0 0 0 0 0 0 0 0 0 0 0 0 0 0 0 0 0 0 0 0 0 0 0 0 0 0 0 0 0 0 0 0 0 0 0 0 0
0 0 0 0 0 0 0 0 0 0 0 0 0 0 0 0 0 0 0 0 0 0 0 0 0 0 0 -0 0 0 0 0 0 0 0 0 0 0 0 0 0 0 0
0 0 0 0 0 0 0 0 0 0 0 0 0 0 0 0 0 0 0 -0 0 0 0 0 0 0 0 0 0 0 0 0 0 0 0 0 0 0 0 0 0 0 0
0 0 0 0 0 0 0 0 0 0 0 0 0 0 0 0 0 0 0 0 -0 -0 0 0 0 0 0 0 0 -0 0 0 0 0 0 0 0 0 0 0 0 0 0
0 0 0 0 0 0 0 0 0 0 0 0 0 0 0 0 0 0 0 0 0 -0 0 0 0 0 0 0 0 0 0 -0 0 0 0 0 0 0 0 0 0 0 0
0 0 0 0 0 0 0 0 0 0 0 -0 -0 0 0 0 0 0 0 0 0 0 0 0 0 0 0 0 0 0 0 0 0 0 0 0 0 0 0 0 0 0 0
0 0 0 0 0 0 0 0 0 0 0 -0 -0 -0 0 0 0 0 0 0 0 0 0 0 0 0 0 0 0 0 0 0 0 0 0 0 0 0 0 0 0 0 0
0 0 0 0 0 0 0 0 0 0 0 -0 -0 -0 -0 0 0 0 0 0 0 0 0 0 0 0 0 0 0 0 0 0 0 0 0 0 0 0 0 0 0 0 0
0 0 0 0 0 0 0 0 0 0 0 0 -0 -0 -0 -0 0 0 0 0 0 0 0 0 0 0 0 0 0 0 0 0 0 0 0 0 0 0 0 0 0 0 0
0 0 0 0 0 0 0 0 0 0 0 0 0 0 0 -0 0 0 0 0 0 0 0 0 0 0 0 0 0 0 0 0 0 0 0 0 0 0 0 0 0 0 0
0 0 0 0 0 0 0 0 0 0 0 0 0 0 0 0 0 0 0 0 0 0 0 0 0 0 0 0 0 0 0 0 0 0 0 0 0 0 0 0 0 0 0
0 0 0 0 0 0 0 0 0 0 0 0 0 0 0 0 0 0 0 0 0 0 0 0 0 0 0 0 0 0 0 0 0 0 0 0 0 0 0 0 0 0 0
0 0 0 0 0 0 0 0 0 0 0 0 0 0 0 0 0 0 0 0 0 0 0 0 0 0 0 0 0 0 0 0 0 0 0 0 0 0 0 0 0 0 0
0 0 0 0 0 0 0 0 -0 -0 -0 0 0 0 0 0 0 0 0 0 0 0 0 0 0 0 0 0 0 0 0 0 0 0 0 0 0 0 0 0 0 0 0
0 0 0 -0 -0 -0 -0 0 0 0 0 0 0 0 0 0 0 0 0 0 0 0 0 0 0 0 0 0 0 0 0 0 0 0 0 0 0 0 0 0 0 0 0
0 0 0 -0 -0 -0 -0 -0 -0 -0 0 0 0 0 0 0 0 0 0 0 0 0 0 -0 -0 -0 -0 -0 0 0 0 0 0 0 0 0 0 0 0 0 0 0 0
0 0 0 0 0 0 0 0 0 0 0 0 0 0 0 0 0 0 0 0 0 0 0 -0 -0 -0 -0 -0 0 0 -0 -0 0 0 0 0 0 0 0 0 0 0 0
0 0 0 0 0 0 0 0 0 0 0 0 0 0 0 0 0 0 -0 -0 -0 0 -0 -0 -0 -0 -0 -0 -0 0 -0 -0 0 0 0 0 0 0 0 0 0 0 0
0 0 0 0 0 0 0 0 0 0 0 0 0 0 0 0 0 0 0 0 0 0 -0 -0 -0 -0 -0 -0 -0 0 0 0 0 0 0 0 0 0 0 0 0 0 0
0 0 0 0 0 0 0 0 0 0 0 0 0 0 0 0 0 0 0 0 0 0 0 0 -0 -0 -0 0 0 0 0 0 0 0 0 0 0 0 0 0 0 0 0
0 0 0 0 0 0 0 0 0 0 0 0 0 0 0 0 0 0 0 0 0 0 0 0 0 0 0 0 0 0 0 0 0 0 0 0 0 0 0 0 0 0 0
0 0 0 0 0 0 0 0 0 0 0 0 0 0 0 0 0 0 -0 0 -0 0 -0 -0 0 0 0 0 0 0 0 0 0 0 0 0 0 0 0 0 0 0 0
Wind_Speed_500mb
32 26 32 38 44 50 55 57 53 46 42 43 46 48 50 49 54 54 47 50 53 59 60 62 58 42 39 40 43 47 47 58 53 66 71 61 68 72 69 55 55 56 45
24 31 35 43 49 55 57 56 50 45 40 41 42 43 48 50 51 47 39 40 50 58 59 59 60 58 44 35 43 56 71 63 61 63 65 47 52 64 66 64 62 59 59
34 37 41 47 51 54 55 48 45 41 41 40 43 45 46 46 49 36 29 30 36 52 53 57 60 57 56 43 42 50 73 70 87 70 50 28 20 48 50 62 61 62 66
26 36 46 49 49 48 47 46 41 39 38 38 40 42 44 44 41 39 29 33 31 43 55 55 59 58 59 58 47 45 40 43 72 62 50 63 36 33 30 50 56 65 67
30 43 44 39 39 44 45 44 43 39 36 36 37 42 44 41 42 36 32 33 29 38 57 56 57 48 70 58 56 46 47 46 38 56 51 59 63 45 36 43 56 54 53
36 33 30 35 42 39 40 40 38 34 34 35 36 38 42 41 40 34 34 35 33 25 50 53 51 53 52 65 69 56 49 49 50 61 64 71 70 60 45 49 53 65 58
34 28 32 36 37 39 39 36 34 34 32 34 33 33 36 37 37 33 38 39 38 27 42 47 46 44 48 61 58 60 53 47 54 48 53 63 71 66 60 50 48 52 56
27 28 31 33 37 38 36 33 33 33 33 32 31 29 31 31 32 35 36 30 37 39 27 33 42 45 45 48 53 57 80 61 54 53 52 54 68 62 69 63 59 39 50
26 29 29 33 36 33 31 32 32 31 30 29 27 24 23 23 26 30 29 26 39 51 39 34 33 31 40 41 48 51 60 56 55 49 53 56 48 45 56 58 65 60 45
24 26 29 34 30 30 30 29 29 30 29 25 23 19 16 15 18 21 24 21 24 29 32 32 28 29 29 33 37 40 39 45 56 59 51 50 45 47 55 62 66 60 58
22 25 28 26 27 26 26 27 26 24 21 20 18 12 8 8 12 17 15 17 18 15 15 23 21 27 27 30 26 27 32 38 41 50 51 41 43 40 43 42 49 51 45
24 24 23 22 21 21 22 23 22 20 18 17 12 8 4 5 7 8 12 16 18 16 18 20 21 22 28 24 24 26 33 35 35 34 33 35 33 34 31 33 39 41 44
17 15 15 14 16 17 19 19 18 17 16 13 9 5 1 4 7 9 11 14 12 15 16 18 21 25 32 35 35 35 34 31 31 28 26 26 21 23 22 25 26 29 32
9 10 10 11 13 15 16 15 16 14 13 11 9 7 7 7 9 11 12 14 15 16 17 20 23 28 32 34 36 34 34 35 31 29 29 28 22 21 20 20 21 20 21
8 6 3 7 11 12 13 13 14 14 15 13 13 13 12 12 13 14 17 20 24 30 32 35 38 40 41 40 38 38 38 38 39 39 37 36 33 34 31 27 27 22 21
8 5 7 7 9 13 15 14 15 17 17 21 23 21 21 23 25 27 31 34 37 40 47 50 51 48 48 46 40 41 43 44 43 44 41 38 35 34 30 26 26 25 21
11 11 11 10 11 17 18 18 20 20 24 28 30 30 31 33 35 37 40 45 46 44 46 48 48 55 49 45 41 36 37 38 37 36 35 33 30 27 23 23 21 19 17
20 20 18 17 19 21 23 25 29 32 35 35 41 43 41 39 40 40 42 44 47 43 42 42 41 39 41 37 34 30 29 30 31 29 27 24 24 22 18 17 14 12 9
22 22 24 25 27 28 31 32 30 30 31 28 32 33 33 35 36 34 32 33 34 34 33 33 33 33 34 31 28 24 23 22 23 22 21 19 17 15 12 11 8 6 3
27 29 32 36 36 34 30 24 24 24 23 24 27 29 28 22 24 26 26 25 23 24 25 26 24 24 24 23 21 19 17 16 15 15 13 11 8 7 6 5 4 2 3
33 38 39 36 31 28 26 26 22 21 21 21 21 21 20 19 18 19 19 20 20 20 20 18 18 17 16 16 14 12 11 10 9 9 8 6 4 3 1 2 2 4 7
43 44 44 39 34 32 30 27 26 23 21 19 17 16 15 14 14 15 14 14 14 14 13 13 12 12 13 12 12 10 8 4 3 1 2 3 4 5 6 8 10 12 14
46 46 45 42 40 36 33 30 27 26 24 22 21 19 17 16 14 13 13 13 12 11 11 11 11 11 10 9 8 7 7 7 8 10 11 12 14 15 16 19 22 24 26
54 52 52 50 46 42 39 31 33 31 30 29 26 25 24 23 23 22 21 20 18 16 15 14 13 14 13 13 14 15 15 16 18 21 23 25 26 28 29 31 32 35 38
57 60 59 54 48 46 43 40 39 39 37 35 34 33 31 29 28 27 27 26 25 25 24 21 23 23 21 18 26 25 25 27 30 35 36 38 38 39 40 43 44 45 49
62 65 65 60 53 51 48 47 47 45 43 43 42 39 37 36 35 34 34 32 30 33 31 31 34 32 32 33 36 35 36 37 40 50 50 52 51 52 52 53 54 55 58
Wind_Direction_500mb
226 251 273 286 296 306 311 311 309 305 302 297 295 291 289 283 279 270 258 257 252 245 238 230 229 230 229 234 211 189 188 179 206 190 184 184 194 202 210 211 227 231 239
233 259 277 291 298 305 310 308 306 303 301 297 293 292 290 283 283 268 264 262 257 243 238 229 229 234 223 226 227 207 203 195 198 197 186 167 178 198 208 211 215 220 220
246 268 284 294 300 304 305 304 306 305 303 300 298 290 287 282 279 265 258 243 270 244 240 230 228 230 220 225 226 226 207 192 196 205 195 162 180 200 205 203 206 209 222
269 290 296 292 297 302 304 305 304 299 297 297 296 292 290 287 274 256 247 238 264 241 235 230 229 225 217 217 230 218 226 200 207 199 201 206 194 189 209 219 216 220 227
292 294 288 293 300 302 304 305 303 297 291 294 295 291 284 281 277 266 257 252 252 229 228 227 230 226 226 225 227 223 214 225 222 223 209 220 221 209 206 209 216 216 222
299 294 286 294 300 301 302 305 303 298 294 294 294 287 281 276 273 267 257 272 250 237 218 219 230 225 217 227 239 230 226 220 224 231 229 222 223 223 226 218 212 220 223
304 293 297 302 303 309 311 310 306 304 302 298 294 287 278 272 271 260 254 263 268 260 207 224 235 229 223 222 234 227 229 227 233 235 227 234 231 240 228 225 219 217 221
294 301 307 307 314 316 314 313 312 312 310 303 296 288 276 269 263 255 253 262 267 277 223 230 242 231 230 228 225 232 227 238 235 235 237 236 229 227 231 242 236 216 219
304 311 310 314 316 315 319 321 318 316 316 309 300 290 278 268 258 252 249 250 253 254 259 245 235 229 223 223 224 220 219 229 233 232 235 237 237 241 241 240 245 238 225
307 306 310 316 318 320 324 323 320 322 321 318 306 299 288 265 247 235 240 249 254 245 243 238 235 230 222 220 217 218 216 225 229 227 228 229 238 236 243 242 243 242 239
301 308 317 320 318 328 329 332 327 327 328 328 317 306 290 251 231 213 223 244 243 235 222 238 222 213 224 213 211 216 217 217 224 227 226 230 228 230 233 233 241 234 242
301 314 324 325 334 336 343 344 345 344 344 343 336 324 284 217 207 205 216 224 223 236 248 235 229 202 202 204 201 207 212 209 208 205 210 223 223 223 227 235 231 232 236
300 313 311 323 342 349 353 355 1 2 359 359 7 11 212 176 182 189 194 202 220 229 220 214 208 199 197 187 182 188 187 187 191 193 191 193 190 206 204 214 217 222 217
301 310 324 349 7 6 8 15 19 20 20 24 37 74 107 140 160 166 168 170 176 181 183 177 171 164 160 158 159 162 165 159 158 154 156 152 155 150 145 145 144 153 164
275 292 15 46 40 35 39 41 45 52 53 64 82 92 102 118 132 143 146 147 151 144 139 137 138 136 134 134 138 143 142 142 146 145 140 134 135 130 129 133 133 132 135
240 215 141 107 88 76 65 61 67 68 72 77 81 91 103 114 115 119 123 127 128 129 131 128 126 124 122 123 125 130 130 132 134 132 131 131 133 130 131 131 128 127 126
205 175 155 135 105 100 94 89 86 83 82 80 83 86 94 103 109 113 116 114 111 110 109 113 118 117 116 114 115 120 125 127 129 129 129 129 126 125 127 126 126 132 140
178 165 159 145 131 121 112 112 109 105 100 99 99 97 95 95 101 103 103 103 102 102 108 110 108 109 111 115 121 126 130 132 128 125 122 124 125 123 120 121 123 125 128
168 159 157 151 144 134 128 125 112 113 119 117 112 109 107 110 109 105 103 110 119 124 125 123 125 126 123 125 127 130 132 131 128 126 125 124 123 122 121 119 115 111 121
177 164 158 154 151 146 146 143 140 141 136 125 120 118 119 119 120 119 119 120 120 121 119 122 124 123 126 127 129 133 132 129 126 124 125 126 123 109 110 121 120 65 352
175 172 169 164 165 168 165 157 157 154 154 149 144 139 135 134 133 130 130 131 134 133 130 130 129 130 129 130 131 129 131 131 134 139 140 131 98 90 42 28 3 340 322
186 185 185 187 185 184 183 180 176 173 173 171 167 160 156 155 154 148 147 147 147 143 141 141 141 143 148 151 155 161 163 167 174 209 254 261 285 294 298 305 311 311 310
199 196 194 197 202 204 203 201 192 194 197 197 193 191 188 184 183 183 183 187 188 184 182 187 192 194 197 202 210 225 235 244 244 252 258 271 276 283 297 301 300 301 304
211 207 207 211 214 215 215 209 209 211 213 213 213 214 212 210 209 209 209 211 213 215 218 223 229 235 238 244 253 258 263 268 271 272 276 278 281 283 281 281 283 287 287
221 219 220 224 224 223 223 219 222 222 223 224 224 225 226 229 230 231 231 231 231 235 239 244 249 256 259 267 264 269 272 273 275 275 274 274 275 274 273 273 272 275 278
230 229 230 231 231 230 230 228 229 231 231 233 236 238 239 239 241 243 246 248 249 255 257 258 261 261 262 262 268 270 272 273 273 273 273 272 272 273 275 274 275 275 277
Wind_Speed_850mb
32 26 32 38 44 50 55 57 53 46 42 43 46 48 50 49 54 54 47 50 53 59 60 62 58 42 39 40 43 47 47 58 53 66 71 61 68 72 69 55 55 56 45
24 31 35 43 49 55 57 56 50 45 40 41 42 43 48 50 51 47 39 40 50 58 59 59 60 58 44 35 43 56 71 63 61 63 65 47 52 64 66 64 62 59 59
34 37 41 47 51 54 55 48 45 41 41 40 43 45 46 46 49 36 29 30 36 52 53 57 60 57 56 43 42 50 73 70 87 70 50 28 20 48 50 62 61 62 66
26 36 46 49 49 48 47 46 41 39 38 38 40 42 44 44 41 39 29 33 31 43 55 55 59 58 59 58 47 45 40 43 72 62 50 63 36 33 30 50 56 65 67
30 43 44 39 39 44 45 44 43 39 36 36 37 42 44 41 42 36 32 33 29 38 57 56 57 48 70 58 56 46 47 46 38 56 51 59 63 45 36 43 56 54 53
36 33 30 35 42 39 40 40 38 34 34 35 36 38 42 41 40 34 34 35 33 25 50 53 51 53 52 65 69 56 49 49 50 61 64 71 70 60 45 49 53 65 58
34 28 32 36 37 39 39 36 34 34 32 34 33 33 36 37 37 33 38 39 38 27 42 47 46 44 48 61 58 60 53 47 54 48 53 63 71 66 60 50 48 52 56
27 28 31 33 37 38 36 33 33 33 33 32 31 29 31 31 32 35 36 30 37 39 27 33 42 45 45 48 53 57 80 61 54 53 52 54 68 62 69 63 59 39 50
26 29 29 33 36 33 31 32 32 31 30 29 27 24 23 23 26 30 29 26 39 51 39 34 33 31 40 41 48 51 60 56 55 49 53 56 48 45 56 58 65 60 45
24 26 29 34 30 30 30 29 29 30 29 25 23 19 16 15 18 21 24 21 24 29 32 32 28 29 29 33 37 40 39 45 56 59 51 50 45 47 55 62 66 60 58
22 25 28 26 27 26 26 27 26 24 21 20 18 12 8 8 12 17 15 17 18 15 15 23 21 27 27 30 26 27 32 38 41 50 51 41 43 40 43 42 49 51 45
24 24 23 22 21 21 22 23 22 20 18 17 12 8 4 5 7 8 12 16 18 16 18 20 21 22 28 24 24 26 33 35 35 34 33 35 33 34 31 33 39 41 44
17 15 15 14 16 17 19 19 18 17 16 13 9 5 1 4 7 9 11 14 12 15 16 18 21 25 32 35 35 35 34 31 31 28 26 26 21 23 22 25 26 29 32
9 10 10 11 13 15 16 15 16 14 13 11 9 7 7 7 9 11 12 14 15 16 17 20 23 28 32 34 36 34 34 35 31 29 29 28 22 21 20 20 21 20 21
8 6 3 7 11 12 13 13 14 14 15 13 13 13 12 12 13 14 17 20 24 30 32 35 38 40 41 40 38 38 38 38 39 39 37 36 33 34 31 27 27 22 21
8 5 7 7 9 13 15 14 15 17 17 21 23 21 21 23 25 27 31 34 37 40 47 50 51 48 48 46 40 41 43 44 43 44 41 38 35 34 30 26 26 25 21
11 11 11 10 11 17 18 18 20 20 24 28 30 30 31 33 35 37 40 45 46 44 46 48 48 55 49 45 41 36 37 38 37 36 35 33 30 27 23 23 21 19 17
20 20 18 17 19 21 23 25 29 32 35 35 41 43 41 39 40 40 42 44 47 43 42 42 41 39 41 37 34 30 29 30 31 29 27 24 24 22 18 17 14 12 9
22 22 24 25 27 28 31 32 30 30 31 28 32 33 33 35 36 34 32 33 34 34 33 33 33 33 34 31 28 24 23 22 23 22 21 19 17 15 12 11 8 6 3
27 29 32 36 36 34 30 24 24 24 23 24 27 29 28 22 24 26 26 25 23 24 25 26 24 24 24 23 21 19 17 16 15 15 13 11 8 7 6 5 4 2 3
33 38 39 36 31 28 26 26 22 21 21 21 21 21 20 19 18 19 19 20 20 20 20 18 18 17 16 16 14 12 11 10 9 9 8 6 4 3 1 2 2 4 7
43 44 44 39 34 32 30 27 26 23 21 19 17 16 15 14 14 15 14 14 14 14 13 13 12 12 13 12 12 10 8 4 3 1 2 3 4 5 6 8 10 12 14
46 46 45 42 40 36 33 30 27 26 24 22 21 19 17 16 14 13 13 13 12 11 11 11 11 11 10 9 8 7 7 7 8 10 11 12 14 15 16 19 22 24 26
54 52 52 50 46 42 39 31 33 31 30 29 26 25 24 23 23 22 21 20 18 16 15 14 13 14 13 13 14 15 15 16 18 21 23 25 26 28 29 31 32 35 38
57 60 59 54 48 46 43 40 39 39 37 35 34 33 31 29 28 27 27 26 25 25 24 21 23 23 21 18 26 25 25 27 30 35 36 38 38 39 40 43 44 45 49
62 65 65 60 53 51 48 47 47 45 43 43 42 39 37 36 35 34 34 32 30 33 31 31 34 32 32 33 36 35 36 37 40 50 50 52 51 52 52 53 54 55 58
Wind_Direction_850mb
226 251 273 286 296 306 311 311 309 305 302 297 295 291 289 283 279 270 258 257 252 245 238 230 229 230 229 234 211 189 188 179 206 190 184 184 194 202 210 211 227 231 239
233 259 277 291 298 305 310 308 306 303 301 297 293 292 290 283 283 268 264 262 257 243 238 229 229 234 223 226 227 207 203 195 198 197 186 167 178 198 208 211 215 220 220
246 268 284 294 300 304 305 304 306 305 303 300 298 290 287 282 279 265 258 243 270 244 240 230 228 230 220 225 226 226 207 192 196 205 195 162 180 200 205 203 206 209 222
269 290 296 292 297 302 304 305 304 299 297 297 296 292 290 287 274 256 247 238 264 241 235 230 229 225 217 217 230 218 226 200 207 199 201 206 194 189 209 219 216 220 227
292 294 288 293 300 302 304 305 303 297 291 294 295 291 284 281 277 266 257 252 252 229 228 227 230 226 226 225 227 223 214 225 222 223 209 220 221 209 206 209 216 216 222
299 294 286 294 300 301 302 305 303 298 294 294 294 287 281 276 273 267 257 272 250 237 218 219 230 225 217 227 239 230 226 220 224 231 229 222 223 223 226 218 212 220 223
304 293 297 302 303 309 311 310 306 304 302 298 294 287 278 272 271 260 254 263 268 260 207 224 235 229 223 222 234 227 229 227 233 235 227 234 231 240 228 225 219 217 221
294 301 307 307 314 316 314 313 312 312 310 303 296 288 276 269 263 255 253 262 267 277 223 230 242 231 230 228 225 232 227 238 235 235 237 236 229 227 231 242 236 216 219
304 311 310 314 316 315 319 321 318 316 316 309 300 290 278 268 258 252 249 250 253 254 259 245 235 229 223 223 224 220 219 229 233 232 235 237 237 241 241 240 245 238 225
307 306 310 316 318 320 324 323 320 322 321 318 306 299 288 265 247 235 240 249 254 245 243 238 235 230 222 220 217 218 216 225 229 227 228 229 238 236 243 242 243 242 239
301 308 317 320 318 328 329 332 327 327 328 328 317 306 290 251 231 213 223 244 243 235 222 238 222 213 224 213 211 216 217 217 224 227 226 230 228 230 233 233 241 234 242
301 314 324 325 334 336 343 344 345 344 344 343 336 324 284 217 207 205 216 224 223 236 248 235 229 202 202 204 201 207 212 209 208 205 210 223 223 223 227 235 231 232 236
300 313 311 323 342 349 353 355 1 2 359 359 7 11 212 176 182 189 194 202 220 229 220 214 208 199 197 187 182 188 187 187 191 193 191 193 190 206 204 214 217 222 217
301 310 324 349 7 6 8 15 19 20 20 24 37 74 107 140 160 166 168 170 176 181 183 177 171 164 160 158 159 162 165 159 158 154 156 152 155 150 145 145 144 153 164
275 292 15 46 40 35 39 41 45 52 53 64 82 92 102 118 132 143 146 147 151 144 139 137 138 136 134 134 138 143 142 142 146 145 140 134 135 130 129 133 133 132 135
240 215 141 107 88 76 65 61 67 68 72 77 81 91 103 114 115 119 123 127 128 129 131 128 126 124 122 123 125 130 130 132 134 132 131 131 133 130 131 131 128 127 126
205 175 155 135 105 100 94 89 86 83 82 80 83 86 94 103 109 113 116 114 111 110 109 113 118 117 116 114 115 120 125 127 129 129 129 129 126 125 127 126 126 132 140
178 165 159 145 131 121 112 112 109 105 100 99 99 97 95 95 101 103 103 103 102 102 108 110 108 109 111 115 121 126 130 132 128 125 122 124 125 123 120 121 123 125 128
168 159 157 151 144 134 128 125 112 113 119 117 112 109 107 110 109 105 103 110 119 124 125 123 125 126 123 125 127 130 132 131 128 126 125 124 123 122 121 119 115 111 121
177 164 158 154 151 146 146 143 140 141 136 125 120 118 119 119 120 119 119 120 120 121 119 122 124 123 126 127 129 133 132 129 126 124 125 126 123 109 110 121 120 65 352
175 172 169 164 165 168 165 157 157 154 154 149 144 139 135 134 133 130 130 131 134 133 130 130 129 130 129 130 131 129 131 131 134 139 140 131 98 90 42 28 3 340 322
186 185 185 187 185 184 183 180 176 173 173 171 167 160 156 155 154 148 147 147 147 143 141 141 141 143 148 151 155 161 163 167 174 209 254 261 285 294 298 305 311 311 310
199 196 194 197 202 204 203 201 192 194 197 197 193 191 188 184 183 183 183 187 188 184 182 187 192 194 197 202 210 225 235 244 244 252 258 271 276 283 297 301 300 301 304
211 207 207 211 214 215 215 209 209 211 213 213 213 214 212 210 209 209 209 211 213 215 218 223 229 235 238 244 253 258 263 268 271 272 276 278 281 283 281 281 283 287 287
221 219 220 224 224 223 223 219 222 222 223 224 224 225 226 229 230 231 231 231 231 235 239 244 249 256 259 267 264 269 272 273 275 275 274 274 275 274 273 273 272 275 278
230 229 230 231 231 230 230 228 229 231 231 233 236 238 239 239 241 243 246 248 249 255 257 258 261 261 262 262 268 270 272 273 273 273 273 272 272 273 275 274 275 275 277